| time (UTC) | temp C | wind direction | speed KPH | gust KPH | rain 1hr cm | rain 24hr cm | rain mn cm | humidity % | barometer mb |
| 20260507081539 | 12 | 156 | 3.2 | 14.5 | 0.00 | 0.00 | 0.00 | 59 | 1007.2 |
| 20260507080021 | 13 | 165 | 3.2 | 16.1 | 0.00 | 0.00 | 0.00 | 58 | 1007.1 |
| 20260507074532 | 13 | 140 | 1.6 | 12.9 | 0.00 | 0.00 | 0.00 | 59 | 1007.0 |
| 20260507073015 | 14 | 186 | 0.0 | 9.7 | 0.00 | 0.00 | 0.00 | 56 | 1006.8 |
| 20260507071512 | 15 | 179 | 3.2 | 14.5 | 0.00 | 0.00 | 0.00 | 55 | 1006.8 |
| 20260507070015 | 15 | 173 | 4.8 | 30.6 | 0.00 | 0.00 | 0.00 | 53 | 1006.5 |
| 20260507064508 | 16 | 188 | 6.4 | 19.3 | 0.00 | 0.00 | 0.00 | 52 | 1006.4 |
| 20260507063014 | 16 | 212 | 3.2 | 17.7 | 0.00 | 0.00 | 0.00 | 51 | 1006.3 |
| 20260507061508 | 16 | 225 | 6.4 | 16.1 | 0.00 | 0.00 | 0.00 | 48 | 1006.1 |
| 20260507060007 | 16 | 190 | 4.8 | 9.7 | 0.00 | 0.00 | 0.00 | 50 | 1006.3 |
| 20260507054512 | 16 | 181 | 3.2 | 6.4 | 0.00 | 0.00 | 0.00 | 51 | 1006.3 |
| 20260507053007 | 17 | 237 | 3.2 | 6.4 | 0.00 | 0.00 | 0.00 | 51 | 1006.4 |
| 20260507051506 | 17 | 271 | 0.0 | 3.2 | 0.00 | 0.00 | 0.00 | 50 | 1006.3 |
| 20260507050013 | 18 | 163 | 1.6 | 6.4 | 0.00 | 0.00 | 0.00 | 47 | 1006.1 |
| 20260507044506 | 19 | 207 | 1.6 | 20.9 | 0.00 | 0.00 | 0.00 | 43 | 1006.2 |
| 20260507043005 | 20 | 236 | 4.8 | 17.7 | 0.00 | 0.00 | 0.00 | 44 | 1006.3 |
| 20260507041504 | 20 | 265 | 3.2 | 12.9 | 0.00 | 0.00 | 0.00 | 46 | 1006.1 |
| 20260507040006 | 20 | 199 | 4.8 | 20.9 | 0.00 | 0.00 | 0.00 | 46 | 1005.8 |
| 20260507034504 | 20 | 203 | 9.7 | 24.1 | 0.00 | 0.00 | 0.00 | 47 | 1005.5 |
| 20260507033006 | 20 | 238 | 6.4 | 30.6 | 0.00 | 0.00 | 0.00 | 48 | 1005.4 |
| 20260507031502 | 21 | 263 | 9.7 | 25.7 | 0.00 | 0.00 | 0.00 | 49 | 1005.4 |
| 20260507030001 | 21 | 205 | 4.8 | 14.5 | 0.00 | 0.00 | 0.00 | 50 | 1005.6 |
| 20260507024600 | 21 | 219 | 8.0 | 20.9 | 0.00 | 0.00 | 0.00 | 50 | 1005.6 |
| 20260507023106 | 21 | 163 | 8.0 | 25.7 | 0.00 | 0.00 | 0.00 | 49 | 1005.7 |
| 20260507021557 | 22 | 203 | 3.2 | 12.9 | 0.00 | 0.00 | 0.00 | 48 | 1005.9 |
| 20260507020057 | 22 | 178 | 1.6 | 12.9 | 0.00 | 0.00 | 0.00 | 46 | 1006.1 |
| 20260507014603 | 22 | 171 | 4.8 | 16.1 | 0.00 | 0.00 | 0.00 | 46 | 1006.2 |
| 20260507013053 | 22 | 172 | 1.6 | 11.3 | 0.00 | 0.00 | 0.00 | 45 | 1006.4 |
| 20260507011553 | 23 | 211 | 4.8 | 9.7 | 0.00 | 0.00 | 0.00 | 43 | 1006.4 |
| 20260507010051 | 23 | 169 | 4.8 | 19.3 | 0.00 | 0.00 | 0.00 | 43 | 1006.6 |
| 20260507004551 | 23 | 212 | 3.2 | 9.7 | 0.00 | 0.00 | 0.00 | 44 | 1006.7 |
| 20260507003051 | 23 | 271 | 4.8 | 19.3 | 0.00 | 0.00 | 0.00 | 43 | 1006.8 |
| 20260507001551 | 23 | 213 | 11.3 | 19.3 | 0.00 | 0.00 | 0.00 | 40 | 1006.8 |
| 20260507000048 | 23 | 277 | 8.0 | 19.3 | 0.00 | 0.00 | 0.00 | 41 | 1006.8 |
| 20260506234547 | 23 | 198 | 8.0 | 19.3 | 0.00 | 0.00 | 0.00 | 41 | 1006.8 |
| 20260506233100 | 23 | 276 | 8.0 | 24.1 | 0.00 | 0.00 | 0.00 | 40 | 1006.9 |
| 20260506231545 | 24 | 232 | 12.9 | 25.7 | 0.00 | 0.00 | 0.00 | 36 | 1007.0 |
| 20260506230045 | 24 | 215 | 8.0 | 20.9 | 0.00 | 0.00 | 0.00 | 40 | 1007.1 |
| 20260506224542 | 24 | 256 | 12.9 | 22.5 | 0.00 | 0.00 | 0.00 | 39 | 1007.3 |
| 20260506223039 | 25 | 238 | 9.7 | 19.3 | 0.00 | 0.00 | 0.00 | 39 | 1007.6 |
| 20260506221538 | 25 | 173 | 8.0 | 22.5 | 0.00 | 0.00 | 0.00 | 41 | 1007.7 |
| 20260506220036 | 25 | 205 | 6.4 | 19.3 | 0.00 | 0.00 | 0.00 | 42 | 1007.7 |
| 20260506214533 | 25 | 274 | 9.7 | 17.7 | 0.00 | 0.00 | 0.00 | 42 | 1008.0 |
| 20260506213032 | 25 | 283 | 8.0 | 24.1 | 0.00 | 0.00 | 0.00 | 43 | 1008.0 |
| 20260506211533 | 24 | 179 | 4.8 | 19.3 | 0.00 | 0.00 | 0.00 | 46 | 1008.2 |
| 20260506210028 | 25 | 256 | 8.0 | 16.1 | 0.00 | 0.00 | 0.00 | 44 | 1008.5 |
| 20260506204526 | 23 | 245 | 4.8 | 19.3 | 0.00 | 0.00 | 0.00 | 46 | 1008.7 |
| 20260506203024 | 23 | 149 | 6.4 | 14.5 | 0.00 | 0.00 | 0.00 | 49 | 1008.7 |
| 20260506201522 | 24 | 190 | 9.7 | 19.3 | 0.00 | 0.00 | 0.00 | 47 | 1008.9 |
| 20260506200019 | 23 | 222 | 8.0 | 17.7 | 0.00 | 0.00 | 0.00 | 50 | 1008.9 |
| 20260506194519 | 23 | 315 | 6.4 | 16.1 | 0.00 | 0.00 | 0.00 | 49 | 1008.9 |
| 20260506193016 | 23 | 323 | 3.2 | 11.3 | 0.00 | 0.00 | 0.00 | 47 | 1009.3 |
| 20260506191515 | 22 | 153 | 4.8 | 14.5 | 0.00 | 0.00 | 0.00 | 47 | 1009.6 |
| 20260506190013 | 22 | 286 | 6.4 | 17.7 | 0.00 | 0.00 | 0.00 | 49 | 1009.8 |
| 20260506184511 | 22 | 263 | 9.7 | 24.1 | 0.00 | 0.00 | 0.00 | 49 | 1009.6 |
| 20260506183011 | 22 | 233 | 3.2 | 12.9 | 0.00 | 0.00 | 0.00 | 51 | 1009.6 |
| 20260506181509 | 22 | 169 | 1.6 | 11.3 | 0.00 | 0.00 | 0.00 | 51 | 1009.7 |
| 20260506180006 | 21 | 122 | 6.4 | 17.7 | 0.00 | 0.00 | 0.00 | 52 | 1009.8 |
| 20260506174505 | 21 | 95 | 6.4 | 16.1 | 0.00 | 0.00 | 0.00 | 52 | 1009.9 |
| 20260506173003 | 20 | 158 | 6.4 | 14.5 | 0.00 | 0.00 | 0.00 | 52 | 1010.1 |
| 20260506171604 | 19 | 221 | 1.6 | 9.7 | 0.00 | 0.00 | 0.00 | 52 | 1010.3 |
| 20260506170105 | 18 | 117 | 6.4 | 12.9 | 0.00 | 0.00 | 0.00 | 53 | 1010.4 |
| 20260506164556 | 17 | 9 | 4.8 | 9.7 | 0.00 | 0.00 | 0.00 | 49 | 1010.6 |
| 20260506163110 | 16 | 136 | 4.8 | 9.7 | 0.00 | 0.00 | 0.00 | 51 | 1010.8 |
| 20260506161549 | 16 | 105 | 1.6 | 9.7 | 0.00 | 0.00 | 0.00 | 52 | 1010.7 |
| 20260506160045 | 15 | 78 | 8.0 | 14.5 | 0.00 | 0.00 | 0.00 | 53 | 1010.7 |
| 20260506154604 | 14 | 113 | 3.2 | 9.7 | 0.00 | 0.00 | 0.00 | 55 | 1010.8 |
| 20260506153048 | 13 | 64 | 3.2 | 12.9 | 0.00 | 0.00 | 0.00 | 58 | 1010.7 |
| 20260506151536 | 13 | 72 | 4.8 | 12.9 | 0.00 | 0.00 | 0.00 | 57 | 1010.9 |
| 20260506150034 | 12 | 71 | 6.4 | 12.9 | 0.00 | 0.00 | 0.00 | 58 | 1010.9 |
| 20260506144531 | 12 | 111 | 4.8 | 14.5 | 0.00 | 0.00 | 0.00 | 58 | 1010.8 |
| 20260506143038 | 11 | 84 | 4.8 | 14.5 | 0.00 | 0.00 | 0.00 | 58 | 1010.9 |
| 20260506141529 | 11 | 64 | 6.4 | 14.5 | 0.00 | 0.00 | 0.00 | 59 | 1010.9 |
| 20260506140027 | 10 | 111 | 3.2 | 12.9 | 0.00 | 0.00 | 0.00 | 63 | 1010.9 |
| 20260506134525 | 10 | 87 | 3.2 | 9.7 | 0.00 | 0.00 | 0.00 | 65 | 1010.8 |
| 20260506133026 | 10 | 156 | 4.8 | 12.9 | 0.00 | 0.00 | 0.00 | 63 | 1010.6 |
| 20260506131523 | 9 | 107 | 3.2 | 11.3 | 0.00 | 0.00 | 0.00 | 66 | 1010.6 |
| 20260506130022 | 9 | 119 | 6.4 | 12.9 | 0.00 | 0.00 | 0.00 | 65 | 1010.5 |
| 20260506124520 | 8 | 105 | 3.2 | 11.3 | 0.00 | 0.00 | 0.00 | 67 | 1010.4 |
| 20260506123018 | 9 | 105 | 8.0 | 14.5 | 0.00 | 0.00 | 0.00 | 65 | 1010.3 |
| 20260506121515 | 10 | 135 | 4.8 | 19.3 | 0.00 | 0.00 | 0.00 | 64 | 1010.1 |
| 20260506120013 | 10 | 121 | 4.8 | 12.9 | 0.00 | 0.00 | 0.00 | 62 | 1010.0 |
| 20260506114512 | 10 | 77 | 3.2 | 14.5 | 0.00 | 0.00 | 0.00 | 62 | 1009.9 |
| 20260506113011 | 10 | 134 | 3.2 | 14.5 | 0.00 | 0.00 | 0.00 | 61 | 1009.9 |
| 20260506111513 | 10 | 95 | 6.4 | 17.7 | 0.00 | 0.00 | 0.00 | 61 | 1009.9 |
| 20260506110009 | 10 | 115 | 3.2 | 11.3 | 0.00 | 0.00 | 0.00 | 62 | 1009.9 |
| 20260506104508 | 10 | 107 | 3.2 | 9.7 | 0.00 | 0.00 | 0.00 | 62 | 1009.9 |
| 20260506103007 | 10 | 133 | 3.2 | 11.3 | 0.00 | 0.00 | 0.00 | 61 | 1009.8 |
| 20260506101507 | 10 | 109 | 3.2 | 6.4 | 0.00 | 0.00 | 0.00 | 63 | 1009.8 |
| 20260506094503 | 10 | 121 | 3.2 | 9.7 | 0.00 | 0.00 | 0.00 | 63 | 1009.7 |
| 20260506093002 | 9 | 123 | 3.2 | 8.0 | 0.00 | 0.00 | 0.00 | 68 | 1009.8 |
| 20260506091501 | 9 | 145 | 1.6 | 4.8 | 0.00 | 0.00 | 0.00 | 70 | 1009.7 |
| 20260506090059 | 9 | 148 | 1.6 | 4.8 | 0.00 | 0.00 | 0.00 | 70 | 1009.6 |
| 20260506084557 | 10 | 162 | 3.2 | 6.4 | 0.00 | 0.00 | 0.00 | 70 | 1009.6 |
| 20260506083101 | 10 | 161 | 1.6 | 4.8 | 0.00 | 0.00 | 0.00 | 68 | 1009.6 |